Tracking 29932 objects as of 4-Dec-2024
HD Live streaming from Space Station
objects crossing your sky now

STARLINK-31102

Track STARLINK-31102 now!
10-day predictions
STARLINK-31102 is classified as:


NORAD ID: 58715
Int'l Code: 2024-002L
Perigee: 557.9 km
Apogee: 559.9 km
Inclination: 53.2 °
Period: 95.7 minutes
Semi major axis: 6929 km
RCS: Unknown
Launch date: January 3, 2024
Source: United States (US)
Launch site: AIR FORCE WESTERN TEST RANGE (AFWTR)
Your satellite tracking list
Your tracking list is empty




NASA's NSSDC Master Catalog

Two Line Element Set (TLE):
1 58715U 24002L   24338.83656753  .00000149  00000-0  29787-4 0  9998
2 58715  53.1605 176.4818 0001457  95.7479 264.3677 15.04922846 51946
Source of the keplerian elements: AFSPC